Weather History for Langdon, ND

Change the Weather History Date:

Sunday, November 13, 2011

  Actual Average (KDVL) Record (KDVL)
Temperature  
Mean Temperature 34 °F -  
Max Temperature 37 °F 34 °F 61 °F (1953)
Min Temperature 32 °F 19 °F -7 °F (1986)
Degree Days  
Heating Degree Days 30    
Moisture  
Dew Point 28 °F    
Average Humidity 82    
Maximum Humidity 93    
Minimum Humidity 70    
Precipitation  
Precipitation 0.00 in - - ()
Sea Level Pressure  
Sea Level Pressure 29.18 in    
Wind  
Wind Speed 15 mph (West)    
Max Wind Speed 25 mph    
Max Gust Speed 32 mph    
Visibility 10 miles    
Events      
Averages and records for this station are not official NWS values.
T = Trace of Precipitation, MM = Missing Value Source: NWS Daily Summary

Daily Weather History Graph

Daily Weather History Graph

Search for Another Location

Airport:

Trip Planner

Search our weather history database for the weather conditions in past years. The results will help you decide how hot, cold, wet, or windy it might be!

Date:

Astronomy

Nov. 13, 2011 Rise Set
Actual Time 7:38 AM CST 4:56 PM CST
Civil Twilight 7:04 AM CST 5:30 PM CST
Nautical Twilight 6:26 AM CST 6:08 PM CST
Astronomical Twilight 5:49 AM CST 6:45 PM CST
Moon 6:57 PM CST (11/13) 10:22 AM CST (11/13)
Length of Visible Light 10h 25m
Length of Day
9h 17m
Waning Gibbous, 92% of the Moon is Illuminated
Nov 13
Waning Gibbous
Nov 18
Last Quarter
Nov 25
New
Dec 2
First Quarter
Dec 10
Full

Hourly Weather History & Observations

Time (CST) Temp. Windchill Dew Point Humidity Pressure Visibility Wind Dir Wind Speed Gust Speed Precip Events Conditions
12:15 AM 32.0 °F 20.5 °F 28.4 °F 87% 29.13 in 10.0 mi WNW 18.4 mph 24.2 mph N/A   Overcast
12:35 AM 32.0 °F 20.1 °F 30.2 °F 93% 29.12 in 10.0 mi WNW 19.6 mph 25.3 mph N/A   Overcast
12:55 AM 32.0 °F 18.6 °F 28.4 °F 87% 29.12 in 10.0 mi NW 25.3 mph 32.2 mph N/A   Overcast
1:15 AM 32.0 °F 20.5 °F 28.4 °F 87% 29.13 in 10.0 mi WNW 18.4 mph 32.2 mph N/A   Overcast
1:35 AM 32.0 °F 20.5 °F 28.4 °F 87% 29.14 in 10.0 mi WNW 18.4 mph 28.8 mph N/A   Overcast
2:15 AM 32.0 °F 19.5 °F 30.2 °F 93% 29.14 in 10.0 mi NW 21.9 mph 27.6 mph N/A   Overcast
2:35 AM 32.0 °F 19.8 °F 28.4 °F 87% 29.15 in 10.0 mi WNW 20.7 mph 32.2 mph N/A   Overcast
2:55 AM 32.0 °F 19.8 °F 28.4 °F 87% 29.14 in 10.0 mi NW 20.7 mph 27.6 mph N/A   Overcast
3:15 AM 32.0 °F 20.1 °F 28.4 °F 87% 29.14 in 10.0 mi NW 19.6 mph 24.2 mph N/A   Overcast
3:35 AM 32.0 °F 20.5 °F 28.4 °F 87% 29.14 in 10.0 mi NW 18.4 mph 24.2 mph N/A   Overcast
3:55 AM 32.0 °F 22.5 °F 28.4 °F 87% 29.15 in 10.0 mi WNW 12.7 mph 20.7 mph N/A   Overcast
4:15 AM 32.0 °F 22.1 °F 28.4 °F 87% 29.16 in 10.0 mi NW 13.8 mph - N/A   Overcast
4:35 AM 32.0 °F 22.1 °F 28.4 °F 87% 29.15 in 10.0 mi NW 13.8 mph - N/A   Overcast
4:55 AM 32.0 °F 20.8 °F 28.4 °F 87% 29.16 in 10.0 mi NW 17.3 mph - N/A   Overcast
5:35 AM 32.0 °F 23.0 °F 28.4 °F 87% 29.17 in 10.0 mi WNW 11.5 mph - N/A   Overcast
5:55 AM 32.0 °F 22.1 °F 26.6 °F 80% 29.18 in 10.0 mi WNW 13.8 mph - N/A   Overcast
6:15 AM 32.0 °F 21.6 °F 26.6 °F 80% 29.19 in 10.0 mi WNW 15.0 mph - N/A   Overcast
6:55 AM 32.0 °F 23.6 °F 26.6 °F 80% 29.19 in 10.0 mi WNW 10.4 mph - N/A   Overcast
7:35 AM 32.0 °F 22.1 °F 26.6 °F 80% 29.19 in 10.0 mi WNW 13.8 mph - N/A   Overcast
7:55 AM 32.0 °F 22.1 °F 26.6 °F 80% 29.20 in 10.0 mi WNW 13.8 mph - N/A   Overcast
8:15 AM 32.0 °F 22.5 °F 26.6 °F 80% 29.20 in 10.0 mi WNW 12.7 mph - N/A   Overcast
8:35 AM 32.0 °F 22.1 °F 26.6 °F 80% 29.20 in 10.0 mi WNW 13.8 mph - N/A   Overcast
8:55 AM 32.0 °F 23.0 °F 28.4 °F 87% 29.21 in 10.0 mi WNW 11.5 mph - N/A   Overcast
9:15 AM 32.0 °F 23.0 °F 28.4 °F 87% 29.21 in 10.0 mi West 11.5 mph - N/A   Overcast
9:35 AM 32.0 °F 23.6 °F 28.4 °F 87% 29.21 in 10.0 mi WNW 10.4 mph - N/A   Overcast
9:55 AM 32.0 °F 23.6 °F 26.6 °F 80% 29.21 in 10.0 mi WNW 10.4 mph - N/A   Overcast
10:15 AM 32.0 °F 22.5 °F 26.6 °F 80% 29.21 in 10.0 mi West 12.7 mph - N/A   Overcast
10:35 AM 32.0 °F 23.6 °F 26.6 °F 80% 29.21 in 10.0 mi WNW 10.4 mph - N/A   Overcast
10:55 AM 32.0 °F 22.5 °F 26.6 °F 80% 29.21 in 10.0 mi West 12.7 mph - N/A   Overcast
11:15 AM 32.0 °F 23.0 °F 26.6 °F 80% 29.21 in 10.0 mi West 11.5 mph - N/A   Overcast
11:35 AM 32.0 °F 23.0 °F 26.6 °F 80% 29.21 in 10.0 mi West 11.5 mph - N/A   Overcast
11:55 AM 32.0 °F 23.6 °F 26.6 °F 80% 29.21 in 10.0 mi West 10.4 mph - N/A   Overcast
12:15 PM 32.0 °F 22.5 °F 26.6 °F 80% 29.20 in 10.0 mi WSW 12.7 mph - N/A   Overcast
12:35 PM 32.0 °F 23.0 °F 26.6 °F 80% 29.20 in 10.0 mi WSW 11.5 mph - N/A   Overcast
12:55 PM 32.0 °F 23.6 °F 26.6 °F 80% 29.19 in 10.0 mi WSW 10.4 mph - N/A   Mostly Cloudy
1:15 PM 33.8 °F 24.8 °F 26.6 °F 75% 29.19 in 10.0 mi SW 12.7 mph - N/A   Overcast
1:35 PM 33.8 °F 24.3 °F 26.6 °F 75% 29.19 in 10.0 mi SW 13.8 mph - N/A   Overcast
1:55 PM 35.6 °F 27.1 °F 26.6 °F 70% 29.18 in 10.0 mi WSW 12.7 mph - N/A   Overcast
2:15 PM 35.6 °F 26.6 °F 26.6 °F 70% 29.18 in 10.0 mi SW 13.8 mph - N/A   Overcast
2:35 PM 35.6 °F 26.6 °F 26.6 °F 70% 29.18 in 10.0 mi SW 13.8 mph - N/A   Overcast
2:55 PM 35.6 °F 27.1 °F 28.4 °F 75% 29.18 in 10.0 mi SW 12.7 mph - N/A   Mostly Cloudy
3:15 PM 35.6 °F 26.2 °F 28.4 °F 75% 29.18 in 10.0 mi WSW 15.0 mph - N/A   Mostly Cloudy
3:35 PM 35.6 °F 27.5 °F 28.4 °F 75% 29.18 in 10.0 mi SW 11.5 mph - N/A   Overcast
3:55 PM 35.6 °F 30.7 °F 30.2 °F 81% 29.18 in 10.0 mi SW 5.8 mph - N/A   Overcast
4:15 PM 37.4 °F 30.8 °F 30.2 °F 75% 29.18 in 10.0 mi SW 9.2 mph - N/A   Overcast
4:35 PM 35.6 °F 29.9 °F 30.2 °F 81% 29.18 in 10.0 mi SW 6.9 mph - N/A   Overcast
4:55 PM 33.8 °F 28.6 °F 28.4 °F 81% 29.18 in 10.0 mi South 5.8 mph - N/A   Mostly Cloudy
5:15 PM 33.8 °F 28.6 °F 28.4 °F 81% 29.18 in 10.0 mi South 5.8 mph - N/A   Overcast
5:35 PM 33.8 °F 28.6 °F 28.4 °F 81% 29.18 in 10.0 mi SE 5.8 mph - N/A   Overcast
5:55 PM 33.8 °F 27.7 °F 28.4 °F 81% 29.19 in 10.0 mi SE 6.9 mph - N/A   Overcast
6:15 PM 32.0 °F 24.8 °F 28.4 °F 87% 29.19 in 10.0 mi SE 8.1 mph - N/A   Mostly Cloudy
6:35 PM 32.0 °F 25.6 °F 28.4 °F 87% 29.18 in 10.0 mi SE 6.9 mph - N/A   Overcast
6:55 PM 32.0 °F 24.8 °F 28.4 °F 87% 29.19 in 10.0 mi SSE 8.1 mph - N/A   Overcast
7:15 PM 32.0 °F 24.8 °F 28.4 °F 87% 29.18 in 10.0 mi SSE 8.1 mph - N/A   Mostly Cloudy
7:35 PM 32.0 °F 24.8 °F 28.4 °F 87% 29.18 in 10.0 mi South 8.1 mph - N/A   Overcast
7:55 PM 32.0 °F 26.4 °F 28.4 °F 87% 29.18 in 10.0 mi South 5.8 mph - N/A   Mostly Cloudy
8:15 PM 32.0 °F 25.6 °F 28.4 °F 87% 29.19 in 10.0 mi SSW 6.9 mph - N/A   Overcast
8:55 PM 32.0 °F 24.2 °F 26.6 °F 80% 29.19 in 10.0 mi SW 9.2 mph - N/A   Overcast
9:15 PM 32.0 °F 23.6 °F 26.6 °F 80% 29.19 in 10.0 mi WSW 10.4 mph - N/A   Overcast
9:35 PM 32.0 °F 23.6 °F 26.6 °F 80% 29.19 in 10.0 mi WSW 10.4 mph - N/A   Overcast
9:55 PM 32.0 °F 23.6 °F 26.6 °F 80% 29.19 in 10.0 mi WSW 10.4 mph - N/A   Mostly Cloudy
10:35 PM 28.4 °F 19.7 °F 24.8 °F 86% 29.20 in 10.0 mi West 9.2 mph - N/A   Partly Cloudy
10:55 PM 28.4 °F 19.7 °F 24.8 °F 86% 29.19 in 10.0 mi West 9.2 mph - N/A   Clear
11:15 PM 28.4 °F 19.7 °F 24.8 °F 86% 29.20 in 10.0 mi WSW 9.2 mph - N/A   Scattered Clouds
11:35 PM 28.4 °F 19.1 °F 24.8 °F 86% 29.21 in 10.0 mi SW 10.4 mph - N/A   Mostly Cloudy
11:55 PM 32.0 °F 22.5 °F 26.6 °F 80% 29.21 in 10.0 mi WSW 12.7 mph - N/A   Overcast